Show Low, AZ

3:20 PM MST on December 07, 2016 (GMT -0700)
Show Low Municipal

Weather History for KSOW - June, 2013

Change the Weather History Date:

Sunday, June 23, 2013

  Actual Average Record
Temperature  
Mean Temperature 66 °F -  
Max Temperature 82 °F 82 °F 97 °F (1990)
Min Temperature 50 °F 64 °F 39 °F (1975)
Cooling Degree Days 1    
Growing Degree Days 16 (Base 50)    
Moisture  
Dew Point 15 °F    
Average Humidity 14    
Maximum Humidity 24    
Minimum Humidity 6    
Precipitation  
Precipitation 0.00 in - - ()
Sea Level Pressure  
Sea Level Pressure 30.09 in    
Wind  
Wind Speed 12 mph (SSW)    
Max Wind Speed 24 mph    
Max Gust Speed 36 mph    
Visibility 10 miles    
Events      
Averages and records for this station are not official NWS values.
T = Trace of Precipitation, MM = Missing Value Source: NWS Daily Summary

Daily Weather History Graph

Daily Weather History Graph

Search for Another Location

Airport or City:

Trip Planner

Search our weather history database for the weather conditions in past years. The results will help you decide how hot, cold, wet, or windy it might be!

Date:

Astronomy

Jun. 23, 2013 Rise Set
Actual Time 5:09 AM MST 7:35 PM MST
Civil Twilight 4:39 AM MST 8:04 PM MST
Nautical Twilight 4:03 AM MST 8:41 PM MST
Astronomical Twilight 3:23 AM MST 9:20 PM MST
Moon 7:54 PM MST (6/23) 5:27 AM MST (6/23)
Length of Visible Light 15h 25m
Length of Day
14h 26m
Full, 100% of the Moon is Illuminated
Jun 23
Full
Jun 29
Last Quarter
Jul 8
New
Jul 15
First Quarter
Jul 22
Full

Hourly Weather History & Observations

Time (MST) Temp. Dew Point Humidity Pressure Visibility Wind Dir Wind Speed Gust Speed Precip Events Conditions
12:15 AM 55.4 °F 12.2 °F 18% 30.13 in 10.0 mi South 5.8 mph - N/A   Clear
12:35 AM 55.4 °F 14.0 °F 20% 30.12 in 10.0 mi South 8.1 mph - N/A   Clear
12:55 AM 57.2 °F 14.0 °F 18% 30.12 in 10.0 mi South 8.1 mph - N/A   Clear
1:15 AM 57.2 °F 14.0 °F 18% 30.12 in 10.0 mi South 9.2 mph - N/A   Clear
1:35 AM 57.2 °F 14.0 °F 18% 30.12 in 10.0 mi South 9.2 mph - N/A   Clear
1:55 AM 53.6 °F 14.0 °F 21% 30.12 in 10.0 mi South 6.9 mph - N/A   Clear
2:15 AM 55.4 °F 14.0 °F 20% 30.12 in 10.0 mi South 9.2 mph - N/A   Clear
2:35 AM 51.8 °F 14.0 °F 22% 30.12 in 10.0 mi South 6.9 mph - N/A   Clear
2:55 AM 51.8 °F 14.0 °F 22% 30.12 in 10.0 mi South 5.8 mph - N/A   Clear
3:15 AM 50.0 °F 14.0 °F 24% 30.12 in 10.0 mi South 6.9 mph - N/A   Clear
3:35 AM 51.8 °F 14.0 °F 22% 30.12 in 10.0 mi South 6.9 mph - N/A   Clear
3:55 AM 53.6 °F 15.8 °F 22% 30.12 in 10.0 mi SSE 8.1 mph - N/A   Clear
4:15 AM 51.8 °F 15.8 °F 24% 30.12 in 10.0 mi South 8.1 mph - N/A   Clear
4:35 AM 51.8 °F 15.8 °F 24% 30.12 in 10.0 mi SSE 6.9 mph - N/A   Clear
4:55 AM 51.8 °F 15.8 °F 24% 30.12 in 10.0 mi SSE 8.1 mph - N/A   Clear
5:15 AM 53.6 °F 15.8 °F 22% 30.12 in 10.0 mi South 9.2 mph - N/A   Clear
5:35 AM 53.6 °F 17.6 °F 24% 30.12 in 10.0 mi South 11.5 mph - N/A   Clear
5:55 AM 55.4 °F 17.6 °F 23% 30.12 in 10.0 mi South 12.7 mph - N/A   Clear
6:35 AM 62.6 °F 19.4 °F 19% 30.12 in 10.0 mi South 10.4 mph - N/A   Clear
6:55 AM 64.4 °F 19.4 °F 18% 30.13 in 10.0 mi South 10.4 mph - N/A   Clear
7:15 AM 66.2 °F 21.2 °F 18% 30.13 in 10.0 mi South 9.2 mph - N/A   Clear
7:35 AM 68.0 °F 21.2 °F 17% 30.14 in 10.0 mi SSW 8.1 mph - N/A   Clear
7:55 AM 69.8 °F 21.2 °F 16% 30.14 in 10.0 mi South 12.7 mph - N/A   Clear
8:15 AM 71.6 °F 23.0 °F 16% 30.14 in 10.0 mi SSW 12.7 mph - N/A   Unknown
8:35 AM 71.6 °F 23.0 °F 16% 30.14 in 10.0 mi SW 10.4 mph 19.6 mph N/A   Clear
8:55 AM 73.4 °F 23.0 °F 15% 30.13 in 10.0 mi SSW 13.8 mph - N/A   Clear
9:15 AM 73.4 °F 21.2 °F 14% 30.12 in 10.0 mi SSW 15.0 mph 23.0 mph N/A   Clear
9:35 AM 75.2 °F 17.6 °F 11% 30.12 in 10.0 mi SSW 17.3 mph 28.8 mph N/A   Clear
9:55 AM 75.2 °F 15.8 °F 11% 30.12 in 10.0 mi SSW 21.9 mph 29.9 mph N/A   Clear
10:15 AM 77.0 °F 17.6 °F 11% 30.12 in 10.0 mi SW 23.0 mph 32.2 mph N/A   Clear
10:35 AM 77.0 °F 15.8 °F 10% 30.12 in 10.0 mi SSW 19.6 mph 28.8 mph N/A   Clear
10:55 AM 77.0 °F 15.8 °F 10% 30.12 in 10.0 mi SSW 20.7 mph 27.6 mph N/A   Clear
11:15 AM 77.0 °F 15.8 °F 10% 30.11 in 10.0 mi South 24.2 mph 31.1 mph N/A   Clear
11:35 AM 78.8 °F 15.8 °F 9% 30.11 in 10.0 mi SSW 20.7 mph 28.8 mph N/A   Clear
11:55 AM 78.8 °F 12.2 °F 8% 30.10 in 10.0 mi South 23.0 mph 28.8 mph N/A   Clear
12:15 PM 78.8 °F 8.6 °F 7% 30.10 in 10.0 mi SW 18.4 mph 26.5 mph N/A   Clear
12:35 PM 80.6 °F 6.8 °F 6% 30.10 in 10.0 mi SSW 19.6 mph 26.5 mph N/A   Clear
12:55 PM 80.6 °F 6.8 °F 6% 30.10 in 10.0 mi SSW 18.4 mph 31.1 mph N/A   Clear
1:15 PM 82.4 °F 6.8 °F 6% 30.09 in 10.0 mi SW 21.9 mph 28.8 mph N/A   Clear
1:35 PM 82.4 °F 8.6 °F 6% 30.08 in 10.0 mi SW 19.6 mph 31.1 mph N/A   Clear
1:55 PM 80.6 °F 8.6 °F 6% 30.08 in 10.0 mi SSW 18.4 mph 31.1 mph N/A   Clear
2:15 PM 80.6 °F 6.8 °F 6% 30.07 in 10.0 mi SSW 19.6 mph 31.1 mph N/A   Clear
2:35 PM 80.6 °F 8.6 °F 6% 30.07 in 10.0 mi SSW 16.1 mph 26.5 mph N/A   Clear
2:55 PM 82.4 °F 10.4 °F 7% 30.06 in 10.0 mi WSW 24.2 mph 33.4 mph N/A   Clear
3:15 PM 82.4 °F 10.4 °F 7% 30.06 in 10.0 mi SSW 20.7 mph 35.7 mph N/A   Clear
3:35 PM 82.4 °F 10.4 °F 7% 30.05 in 10.0 mi SW 15.0 mph 27.6 mph N/A   Clear
3:55 PM 82.4 °F 10.4 °F 7% 30.05 in 10.0 mi SSW 19.6 mph 33.4 mph N/A   Clear
4:15 PM 80.6 °F 10.4 °F 7% 30.04 in 10.0 mi SSW 21.9 mph 32.2 mph N/A   Clear
4:35 PM 80.6 °F 10.4 °F 7% 30.03 in 10.0 mi SW 24.2 mph 34.5 mph N/A   Clear
4:55 PM 80.6 °F 10.4 °F 7% 30.03 in 10.0 mi SSW 23.0 mph 32.2 mph N/A   Clear
5:15 PM 80.6 °F 10.4 °F 7% 30.03 in 10.0 mi SSW 21.9 mph 28.8 mph N/A   Clear
5:35 PM 80.6 °F 12.2 °F 8% 30.03 in 10.0 mi SW 19.6 mph 32.2 mph N/A   Clear
5:55 PM 78.8 °F 14.0 °F 9% 30.03 in 10.0 mi South 24.2 mph 32.2 mph N/A   Clear
6:15 PM 77.0 °F 14.0 °F 9% 30.03 in 10.0 mi SSW 21.9 mph 29.9 mph N/A   Clear
6:35 PM 77.0 °F 14.0 °F 9% 30.03 in 10.0 mi SSW 18.4 mph 26.5 mph N/A   Clear
6:55 PM 75.2 °F 15.8 °F 11% 30.03 in 10.0 mi SW 18.4 mph 21.9 mph N/A   Clear
7:15 PM 73.4 °F 15.8 °F 11% 30.04 in 10.0 mi SW 15.0 mph - N/A   Clear
7:35 PM 73.4 °F 15.8 °F 11% 30.04 in 10.0 mi SSW 11.5 mph - N/A   Clear
7:55 PM 71.6 °F 17.6 °F 13% 30.05 in 10.0 mi SSW 11.5 mph - N/A   Clear
8:15 PM 69.8 °F 17.6 °F 14% 30.05 in 10.0 mi SSW 9.2 mph - N/A   Clear
8:35 PM 68.0 °F 17.6 °F 15% 30.06 in 10.0 mi SSW 9.2 mph - N/A   Clear
8:55 PM 66.2 °F 17.6 °F 15% 30.06 in 10.0 mi SSW 9.2 mph - N/A   Clear
9:15 PM 66.2 °F 17.6 °F 15% 30.06 in 10.0 mi South 9.2 mph - N/A   Clear
9:35 PM 64.4 °F 17.6 °F 16% 30.07 in 10.0 mi South 8.1 mph - N/A   Clear
9:55 PM 62.6 °F 17.6 °F 18% 30.07 in 10.0 mi South 6.9 mph - N/A   Clear
10:15 PM 62.6 °F 17.6 °F 18% 30.07 in 10.0 mi South 8.1 mph - N/A   Clear
10:35 PM 62.6 °F 17.6 °F 18% 30.07 in 10.0 mi South 6.9 mph - N/A   Clear
10:55 PM 59.0 °F 17.6 °F 20% 30.07 in 10.0 mi South 6.9 mph - N/A   Clear
11:15 PM 59.0 °F 17.6 °F 20% 30.07 in 10.0 mi South 5.8 mph - N/A   Clear
11:35 PM 59.0 °F 15.8 °F 19% 30.07 in 10.0 mi South 9.2 mph - N/A   Clear
11:55 PM 59.0 °F 17.6 °F 20% 30.07 in 10.0 mi South 9.2 mph - N/A   Clear